This is the latest recevied weather packets stored in our database for station/object DB0TV-13. If no packets are shown the sender has not sent any weather packets the latest 1 day(s).
| Time | Temp. | Humidity | Pressure | Rain* | Wind** | Luminosity | Snow |
|---|---|---|---|---|---|---|---|
| 1777969819 | 13.33° C | 94% | 1009.2 hPa | 0 mm | 0.89 m/s, 203° | 245 W/m² | - |
| 1777969219 | 13.33° C | 94% | 1009.1 hPa | 0 mm | 0.89 m/s, 225° | 203 W/m² | - |
| 1777968619 | 13.33° C | 95% | 1009.2 hPa | 0 mm | 0.45 m/s, 158° | 223 W/m² | - |
| 1777966219 | 12.78° C | 95% | 1009.2 hPa | 0 mm | 0.45 m/s, 158° | 115 W/m² | - |
| 1777965019 | 12.22° C | 96% | 1009.3 hPa | 0 mm | 0.45 m/s, 135° | 98 W/m² | - |
| 1777964419 | 12.22° C | 96% | 1009.3 hPa | 0 mm | 0.45 m/s, 113° | 144 W/m² | - |
| 1777962619 | 12.22° C | 96% | 1009.4 hPa | 0 mm | 0.45 m/s, 135° | 80 W/m² | - |
| 1777962019 | 11.67° C | 96% | 1009.5 hPa | 0 mm | 0.89 m/s, 135° | 63 W/m² | - |
| 1777961419 | 11.67° C | 96% | 1009.6 hPa | 0 mm | 0.89 m/s, 158° | 54 W/m² | - |
| 1777960819 | 11.67° C | 96% | 1009.7 hPa | 0 mm | 0.45 m/s, 158° | 43 W/m² | - |
| 1777960218 | 12.22° C | 96% | 1009.7 hPa | 0 mm | 0.89 m/s, 158° | 32 W/m² | - |
| 1777959619 | 11.67° C | 96% | 1009.6 hPa | 0 mm | 0.89 m/s, 135° | 22 W/m² | - |
| 1777959019 | 12.22° C | 96% | 1009.8 hPa | 0 mm | 0.45 m/s, 158° | 31 W/m² | - |
| 1777958419 | 11.67° C | 96% | 1009.6 hPa | 0 mm | 0.45 m/s, 158° | 35 W/m² | - |
| 1777957818 | 11.67° C | 96% | 1009.6 hPa | 0 mm | 0.45 m/s, 180° | 22 W/m² | - |
| 1777956619 | 11.67° C | 96% | 1009.6 hPa | 0 mm | 0.45 m/s, 180° | 5 W/m² | - |
| 1777956019 | 11.67° C | 96% | 1009.6 hPa | 0.25 mm | 0.45 m/s, 180° | 2 W/m² | - |
| 1777954818 | 11.67° C | 96% | 1009.7 hPa | 0.25 mm | 0.45 m/s, 158° | 3 W/m² | - |
| 1777954219 | 11.67° C | 96% | 1009.9 hPa | 0.25 mm | 0.45 m/s, 158° | 0 W/m² | - |
| 1777953623 | 11.67° C | 96% | 1009.9 hPa | 0.25 mm | 0.45 m/s, 158° | 0 W/m² | - |
| 1777947629 | 11.67° C | 96% | 1010.6 hPa | 0 mm | 0.45 m/s, 158° | 0 W/m² | - |
| 1777947018 | 11.67° C | 96% | 1010.6 hPa | 0 mm | 0.89 m/s, 158° | 0 W/m² | - |
| 1777946418 | 11.67° C | 96% | 1010.7 hPa | 0 mm | 0.45 m/s, 158° | 0 W/m² | - |
| 1777945818 | 11.67° C | 96% | 1010.7 hPa | 0 mm | 0.45 m/s, 158° | 0 W/m² | - |
| 1777945218 | 11.67° C | 96% | 1010.7 hPa | 0 mm | 0.45 m/s, 158° | 0 W/m² | - |
* Rain latest hour (hover to see other rain measurements)
** Current wind speed in m/s (hover to see current wind gust speed)